Torna al catalogo

INTELSAT 33E DEB

AttivoGEO
NORAD 62003·DEBRIS· XX

Lanciato Aug 24, 2016 da Guiana Space Centre

Loading…

TLE

AggiornatoSource: Space-Track

Epoca: Sep 13, 2026, 23:37 UTC

1 62003U 16053V   26256.98463971 -.00000332  00000-0  00000-0 0  9993
2 62003   1.8487  86.0019 0009526 208.9118 151.7980  1.00447419  6979

Traccia INTELSAT 33E DEB in tempo reale con AllMySat

Download on the App Store